| time (UTC) | temp F | wind direction | speed MPH | gust MPH | rain 1hr in | rain 24hr in | rain mn in | humidity % | barometer mb |
| 20260504160401 | 76 | 315 | 1.0 | 2.0 | 0.00 | 0.07 | 0.00 | 98 | 1010.0 |
| 20260504160200 | 76 | 315 | 0.0 | 2.0 | 0.00 | 0.07 | 0.00 | 99 | 1010.1 |
| 20260504151001 | 76 | 315 | 1.0 | 2.0 | 0.00 | 0.07 | 0.07 | 98 | 1009.5 |
| 20260504150801 | 76 | 315 | 0.0 | 2.0 | 0.00 | 0.07 | 0.07 | 98 | 1009.7 |
| 20260504150601 | 76 | 315 | 0.0 | 2.0 | 0.00 | 0.07 | 0.07 | 98 | 1009.6 |
| 20260504150401 | 76 | 315 | 2.0 | 2.0 | 0.00 | 0.07 | 0.07 | 98 | 1009.5 |
| 20260504150201 | 76 | 315 | 1.0 | 2.0 | 0.00 | 0.07 | 0.07 | 98 | 1009.7 |
| 20260504141201 | 77 | 292 | 2.0 | 2.0 | 0.00 | 0.07 | 0.07 | 97 | 1009.5 |
| 20260504141001 | 77 | 292 | 1.0 | 2.0 | 0.00 | 0.07 | 0.07 | 97 | 1009.4 |
| 20260504140801 | 77 | 292 | 0.0 | 2.0 | 0.00 | 0.07 | 0.07 | 97 | 1009.2 |
| 20260504140602 | 77 | 292 | 0.0 | 2.0 | 0.00 | 0.07 | 0.07 | 97 | 1009.3 |
| 20260504140402 | 77 | 292 | 0.0 | 2.0 | 0.00 | 0.07 | 0.07 | 97 | 1009.2 |
| 20260504140201 | 77 | 292 | 0.0 | 2.0 | 0.00 | 0.07 | 0.07 | 97 | 1009.2 |
| 20260504130801 | 78 | 292 | 0.0 | 2.0 | 0.00 | 0.07 | 0.07 | 96 | 1008.8 |
| 20260504130601 | 78 | 292 | 0.0 | 2.0 | 0.00 | 0.07 | 0.07 | 96 | 1008.5 |
| 20260504130401 | 78 | 292 | 0.0 | 2.0 | 0.00 | 0.07 | 0.07 | 96 | 1008.6 |
| 20260504130202 | 78 | 292 | 0.0 | 2.0 | 0.00 | 0.07 | 0.07 | 96 | 1008.5 |
| 20260504120201 | 78 | 292 | 0.0 | 2.0 | 0.00 | 0.07 | 0.07 | 96 | 1007.8 |
| 20260504110602 | 79 | 292 | 2.0 | 2.0 | 0.00 | 0.07 | 0.07 | 92 | 1007.7 |
| 20260504110401 | 79 | 289 | 1.0 | 2.0 | 0.00 | 0.07 | 0.07 | 92 | 1007.6 |
| 20260504110201 | 80 | 280 | 0.0 | 2.0 | 0.00 | 0.07 | 0.07 | 92 | 1007.6 |
| 20260504100601 | 82 | 263 | 0.0 | 2.0 | 0.00 | 0.07 | 0.07 | 86 | 1007.2 |
| 20260504100401 | 82 | 260 | 0.0 | 2.0 | 0.00 | 0.07 | 0.07 | 87 | 1007.1 |
| 20260504100202 | 82 | 255 | 1.0 | 2.0 | 0.00 | 0.07 | 0.07 | 86 | 1007.2 |
| 20260504082002 | 80 | 299 | 1.0 | 8.0 | 0.00 | 0.07 | 0.07 | 89 | 1007.3 |
| 20260504081802 | 80 | 307 | 2.0 | 8.0 | 0.00 | 0.07 | 0.07 | 89 | 1007.2 |
| 20260504081602 | 80 | 305 | 1.0 | 11.0 | 0.00 | 0.07 | 0.07 | 89 | 1007.2 |
| 20260504081402 | 80 | 299 | 2.0 | 11.0 | 0.00 | 0.07 | 0.07 | 89 | 1007.2 |
| 20260504081202 | 80 | 297 | 4.0 | 11.0 | 0.00 | 0.07 | 0.07 | 88 | 1007.1 |
| 20260504081002 | 80 | 297 | 4.0 | 11.0 | 0.00 | 0.07 | 0.07 | 88 | 1007.3 |
| 20260504080802 | 81 | 297 | 5.0 | 11.0 | 0.00 | 0.07 | 0.07 | 88 | 1007.0 |
| 20260504080602 | 81 | 303 | 7.0 | 11.0 | 0.00 | 0.07 | 0.07 | 88 | 1007.2 |
| 20260504080402 | 81 | 320 | 7.0 | 11.0 | 0.00 | 0.07 | 0.07 | 87 | 1007.3 |
| 20260504080201 | 81 | 339 | 3.0 | 8.0 | 0.00 | 0.07 | 0.07 | 88 | 1007.3 |
| 20260504070402 | 82 | 90 | 0.0 | 6.0 | 0.05 | 0.07 | 0.07 | 94 | 1008.0 |
| 20260504070202 | 82 | 86 | 3.0 | 6.0 | 0.05 | 0.07 | 0.07 | 94 | 1007.9 |